Weather History for Newton, IA

Change the Weather History Date:

Monday, June 24, 2013

  Actual Average Record
Temperature  
Mean Temperature 70 °F -  
Max Temperature 75 °F 84 °F 102 °F (1988)
Min Temperature 66 °F 60 °F 45 °F (1972)
Cooling Degree Days 6    
Growing Degree Days 20 (Base 50)    
Moisture  
Dew Point 68 °F    
Average Humidity 93    
Maximum Humidity 100    
Minimum Humidity 83    
Precipitation  
Precipitation 1.68 in - - ()
Sea Level Pressure  
Sea Level Pressure 29.91 in    
Wind  
Wind Speed 8 mph (SE)    
Max Wind Speed 23 mph    
Max Gust Speed 33 mph    
Visibility 8 miles    
Events Rain    
Averages and records for this station are not official NWS values.
T = Trace of Precipitation, MM = Missing Value Source: NWS Daily Summary

Daily Weather History Graph

Daily Weather History Graph

Search for Another Location

Airport:

Trip Planner

Search our weather history database for the weather conditions in past years. The results will help you decide how hot, cold, wet, or windy it might be!

Date:

Astronomy

Jun. 24, 2013 Rise Set
Actual Time 5:38 AM CDT 8:50 PM CDT
Civil Twilight 5:04 AM CDT 9:24 PM CDT
Nautical Twilight 4:20 AM CDT 10:08 PM CDT
Astronomical Twilight 3:27 AM CDT 11:01 PM CDT
Moon 9:51 PM CDT (6/24) 7:08 AM CDT (6/24)
Length of Visible Light 16h 20m
Length of Day
15h 11m
Full, 98% of the Moon is Illuminated
Jun 24
Full
Jun 29
Last Quarter
Jul 8
New
Jul 15
First Quarter
Jul 22
Full

Hourly Weather History & Observations

Time (CDT) Temp. Dew Point Humidity Pressure Visibility Wind Dir Wind Speed Gust Speed Precip Events Conditions
12:15 AM 69.8 °F 68.0 °F 94% 29.95 in 2.5 mi SE 5.8 mph - N/A Rain Heavy Rain
12:35 AM 69.8 °F 68.0 °F 94% 29.94 in 9.0 mi South 6.9 mph - N/A   Mostly Cloudy
12:55 AM 69.8 °F 68.0 °F 94% 29.94 in 10.0 mi SW 6.9 mph - 0.13 in   Mostly Cloudy
1:15 AM 69.8 °F 68.0 °F 94% 29.95 in 7.0 mi NNE 6.9 mph - N/A Rain Light Rain
1:35 AM 69.8 °F 68.0 °F 94% 29.92 in 10.0 mi Calm Calm - N/A   Clear
1:55 AM 69.8 °F 68.0 °F 94% 29.90 in 10.0 mi SSE 10.4 mph - 0.01 in   Clear
2:15 AM 69.8 °F 68.0 °F 94% 29.91 in 10.0 mi South 5.8 mph - N/A   Clear
2:35 AM 69.8 °F 68.0 °F 94% 29.92 in 10.0 mi Calm Calm - N/A   Clear
2:55 AM 68.0 °F 68.0 °F 100% 29.92 in 10.0 mi South 3.5 mph - N/A   Clear
3:15 AM 69.8 °F 68.0 °F 94% 29.96 in 10.0 mi Calm Calm - N/A   Scattered Clouds
3:35 AM 69.8 °F 68.0 °F 94% 29.95 in 10.0 mi ESE 5.8 mph - N/A   Mostly Cloudy
3:55 AM 68.0 °F 68.0 °F 100% 29.94 in 10.0 mi East 4.6 mph - N/A   Overcast
4:15 AM 68.0 °F 68.0 °F 100% 29.93 in 10.0 mi SE 6.9 mph - N/A   Overcast
4:35 AM 69.8 °F 68.0 °F 94% 29.95 in 10.0 mi SSW 4.6 mph - N/A   Overcast
4:55 AM 69.8 °F 68.0 °F 94% 29.95 in 1.2 mi SSW 8.1 mph - 0.36 in Rain Light Rain
5:15 AM 69.8 °F 68.0 °F 94% 29.95 in 7.0 mi South 8.1 mph - N/A   Overcast
5:35 AM 68.0 °F 66.2 °F 94% 29.94 in 1.8 mi SE 9.2 mph - N/A Rain Light Rain
5:55 AM 68.0 °F 66.2 °F 94% 29.93 in 5.0 mi SSE 10.4 mph - 0.22 in Rain Light Rain
6:15 AM 66.2 °F 64.4 °F 94% 29.91 in 10.0 mi SE 9.2 mph 16.1 mph N/A   Mostly Cloudy
6:35 AM 68.0 °F 68.0 °F 100% 29.92 in 7.0 mi North - - N/A   Scattered Clouds
6:55 AM 68.0 °F 68.0 °F 100% 29.94 in 8.0 mi North - - 0.01 in   Scattered Clouds
7:15 AM 69.8 °F 68.0 °F 94% 29.94 in 7.0 mi North - - N/A   Overcast
7:35 AM 69.8 °F 68.0 °F 94% 29.95 in 7.0 mi South 8.1 mph - N/A   Overcast
7:55 AM 69.8 °F 69.8 °F 100% 29.95 in 6.0 mi North - - N/A Rain Light Rain
8:15 AM 71.6 °F 69.8 °F 94% 29.95 in 7.0 mi SSE 10.4 mph - N/A   Mostly Cloudy
8:35 AM 73.4 °F 71.6 °F 94% 29.94 in 7.0 mi SSE 12.7 mph - N/A   Partly Cloudy
8:55 AM 73.4 °F 69.8 °F 88% 29.95 in 8.0 mi SSE 13.8 mph - N/A   Scattered Clouds
9:15 AM 71.6 °F 69.8 °F 94% 29.94 in 6.0 mi SE 12.7 mph - N/A   Overcast
9:35 AM 71.6 °F 69.8 °F 94% 29.94 in 4.0 mi East 12.7 mph - N/A Rain Light Rain
9:55 AM 71.6 °F 69.8 °F 94% 29.94 in 4.0 mi ESE 11.5 mph 18.4 mph 0.01 in   Overcast
10:15 AM 71.6 °F 69.8 °F 94% 29.96 in 4.0 mi East 9.2 mph 16.1 mph N/A   Overcast
10:35 AM 71.6 °F 71.6 °F 100% 29.96 in 4.0 mi ESE 18.4 mph - N/A   Overcast
10:55 AM 71.6 °F 71.6 °F 100% 29.96 in 4.0 mi ESE 15.0 mph 21.9 mph N/A   Mostly Cloudy
11:15 AM 71.6 °F 69.8 °F 94% 29.96 in 5.0 mi ESE 19.6 mph 27.6 mph N/A   Overcast
11:35 AM 73.4 °F 69.8 °F 88% 29.98 in 6.0 mi ESE 15.0 mph 21.9 mph N/A   Overcast
11:55 AM 75.2 °F 71.6 °F 89% 29.97 in 7.0 mi ESE 12.7 mph 20.7 mph N/A   Mostly Cloudy
12:15 PM 73.4 °F 71.6 °F 94% 29.94 in 5.0 mi East 16.1 mph - N/A   Light Drizzle
12:35 PM 73.4 °F 71.6 °F 94% 29.93 in 2.5 mi ESE 15.0 mph 21.9 mph N/A Rain Light Rain
12:55 PM 71.6 °F 69.8 °F 94% 29.99 in 0.8 mi WNW 23.0 mph 33.4 mph 0.40 in Rain Rain
1:15 PM 66.2 °F 64.4 °F 94% 29.96 in 1.5 mi NE 9.2 mph 15.0 mph N/A Rain Light Rain
1:35 PM 66.2 °F 64.4 °F 94% 29.99 in 10.0 mi SE 11.5 mph - N/A   Overcast
1:55 PM 66.2 °F 64.4 °F 94% 29.98 in 4.0 mi ENE 9.2 mph - 0.47 in Rain Light Rain
2:15 PM 66.2 °F 64.4 °F 94% 29.97 in 10.0 mi SSE 8.1 mph - N/A   Mostly Cloudy
2:35 PM 68.0 °F 64.4 °F 88% 29.96 in 4.0 mi East 8.1 mph - N/A Rain Light Rain
2:55 PM 66.2 °F 64.4 °F 94% 29.95 in 9.0 mi Calm Calm - 0.07 in Rain Light Rain
3:15 PM 66.2 °F 64.4 °F 94% 29.91 in 10.0 mi ENE 11.5 mph - N/A   Clear
3:35 PM 68.0 °F 66.2 °F 94% 29.87 in 10.0 mi NE 11.5 mph - N/A   Clear
3:55 PM 68.0 °F 66.2 °F 94% 29.86 in 10.0 mi ENE 9.2 mph - N/A   Clear
4:15 PM 68.0 °F 66.2 °F 94% 29.86 in 10.0 mi East 11.5 mph - N/A   Clear
4:35 PM 69.8 °F 66.2 °F 88% 29.86 in 10.0 mi East 10.4 mph - N/A   Clear
4:55 PM 71.6 °F 68.0 °F 88% 29.88 in 10.0 mi SE 6.9 mph - N/A   Clear
5:15 PM 71.6 °F 68.0 °F 88% 29.90 in 10.0 mi South 11.5 mph - N/A   Clear
5:35 PM 73.4 °F 68.0 °F 83% 29.89 in 10.0 mi SSE 9.2 mph - N/A   Clear
5:55 PM 73.4 °F 68.0 °F 83% 29.88 in 10.0 mi ESE 8.1 mph - N/A   Clear
6:15 PM 73.4 °F 68.0 °F 83% 29.87 in 10.0 mi SE 8.1 mph - N/A   Clear
6:35 PM 73.4 °F 68.0 °F 83% 29.87 in 10.0 mi ESE 10.4 mph - N/A   Clear
6:55 PM 71.6 °F 68.0 °F 88% 29.86 in 10.0 mi ESE 11.5 mph - N/A   Clear
7:15 PM 71.6 °F 68.0 °F 88% 29.86 in 10.0 mi ESE 9.2 mph 15.0 mph N/A   Clear
7:35 PM 73.4 °F 68.0 °F 83% 29.85 in 10.0 mi SE 9.2 mph - N/A   Clear
7:55 PM 71.6 °F 68.0 °F 88% 29.84 in 10.0 mi SE 9.2 mph - N/A   Clear
8:15 PM 71.6 °F 68.0 °F 88% 29.84 in 10.0 mi SE 9.2 mph - N/A   Clear
8:35 PM 69.8 °F 68.0 °F 94% 29.84 in 10.0 mi SE 6.9 mph - N/A   Clear
8:55 PM 69.8 °F 68.0 °F 94% 29.84 in 10.0 mi SE 5.8 mph - N/A   Clear
9:15 PM 69.8 °F 66.2 °F 88% 29.84 in 10.0 mi SE 8.1 mph - N/A   Clear
9:35 PM 68.0 °F 66.2 °F 94% 29.84 in 10.0 mi SE 10.4 mph - N/A   Clear
9:55 PM 68.0 °F 66.2 °F 94% 29.85 in 10.0 mi SE 9.2 mph - N/A   Clear
10:15 PM 68.0 °F 66.2 °F 94% 29.86 in 10.0 mi SSE 8.1 mph - N/A   Clear
10:35 PM 68.0 °F 66.2 °F 94% 29.86 in 10.0 mi SSE 10.4 mph - N/A   Clear
10:55 PM 68.0 °F 64.4 °F 88% 29.86 in 10.0 mi SSE 9.2 mph - N/A   Clear
11:15 PM 66.2 °F 64.4 °F 94% 29.86 in 10.0 mi SSE 8.1 mph - N/A   Clear
11:35 PM 66.2 °F 66.2 °F 100% 29.86 in 10.0 mi SSE 8.1 mph - N/A   Clear
11:55 PM 66.2 °F 66.2 °F 100% 29.85 in 10.0 mi SE 8.1 mph - N/A   Clear